Location: Audinghen
(50.8518°N, 1.6129°E)
Time: 07:39:52
(UTC+00:00)

Cosmos 1092 Rocket - Pass Details

Date: 07 August 2020
Orbit: 953 x 996 km, 82.9° (Epoch: 26 September)

Event Time Altitude Azimuth Distance (km) Brightness Sun altitude
Rises 00:36:09 0° 351° (N) 3,703 8.3 -22.3°
Reaches altitude 10° 00:38:44 10° 355° (N) 2,745 7.4 -22.3°
Maximum altitude 00:44:58 61° 76° (ENE) 1,100 4.3 -22.1°
Enters shadow 00:48:07 29° 146° (SE) 1,685 4.9 -22.0°
